Regional Weather Roundup
Issued by NWS Sioux Falls, SD

Home | Current Version | Previous Version | Text Only | Print | Product List | Glossary On
Versions: 1 2 3 4 5 6 7 8 9 10 11 12 13 14 15 16 17 18 19 20 21 22 23 24 25 26 27 28 29 30 31 32 33 34 35 36 37 38 39 40 41 42 43 44 45 46 47 48 49 50
448
ASUS43 KFSD 051110
RWRFSD

WEATHER ROUNDUP FOR SE SOUTH DAKOTA/SW MINNESOTA/NW IOWA
NATIONAL WEATHER SERVICE SIOUX FALLS SD
500 AM CST MON DEC 05 2016

NOTE: "FAIR" INDICATES FEW OR NO CLOUDS BELOW 12,000 FEET WITH NO
SIGNIFICANT WEATHER AND OR OBSTRUCTIONS TO VISIBILITY.


SDZ038>040-050-052>070-051200-
SOUTHEAST SOUTH DAKOTA

CITY           SKY/WX    TMP DP  RH WIND       PRES   REMARKS
BROOKINGS      PTCLDY    32  29  88 SE15      29.61F WCI  22
CHAMBERLAIN    PTCLDY    30  27  86 SE3       29.54F
HURON          CLOUDY    31  27  85 SE8       29.58F WCI  23
MADISON        FAIR      30  30 100 S9        29.62F WCI  22
MITCHELL       PTCLDY    32  27  81 S12       29.59F WCI  23
SIOUX FALLS    CLOUDY    35  29  78 S12       29.64F WCI  27
WINNER         FAIR      39  22  50 SW10      29.52F
YANKTON        CLOUDY    37  25  60 S12       29.63F
$$

MNZ071-072-080-081-089-090-097-098-051200-
SOUTHWEST MINNESOTA

CITY           SKY/WX    TMP DP  RH WIND       PRES   REMARKS
FAIRMONT       CLOUDY    32  30  92 S12       29.77F WCI  23
JACKSON        CLOUDY    32  30  93 S12       29.74F WCI  23
LUVERNE        CLOUDY    32  30  93 SE8       29.68F WCI  25
MARSHALL       PTCLDY    35  30  82 S12       29.68F WCI  27
MONTEVIDEO     PTCLDY    28  28 100 S7        29.71F WCI  21
PIPESTONE      CLOUDY    34  30  86 SE13      29.64F WCI  25
REDWOOD FALLS  PTCLDY    30  27  88 SE10      29.72F WCI  21
TRACY          MOCLDY    35  32  88 S13       29.69F WCI  27
WINDOM         CLOUDY    34  32  93 CALM      29.72F
WORTHINGTON    CLOUDY    32  30  92 S8        29.71F WCI  25
$$

IAZ001>003-012>014-020>022-031-032-NEZ013-014-SDZ071-051200-
NORTHWEST IOWA

CITY           SKY/WX    TMP DP  RH WIND       PRES   REMARKS
CHEROKEE       MOCLDY    33  32  96 S6        29.74F WCI  27
DENISON        CLEAR     34  30  86 S13G20    29.77F WCI  25
ESTHERVILLE    CLOUDY    31  31 100 S12       29.75F WCI  22
LE MARS        CLOUDY    34  30  86 S15G21    29.71F WCI  24
ORANGE CITY    PTCLDY    34  30  86 SE7       29.69F WCI  28
SHELDON        CLOUDY    32  32 100 SE15      29.70F WCI  22
SIOUX CITY     MOCLDY    34  31  88 SE8       29.72F WCI  27
SPENCER        CLOUDY    33  31  92 S13       29.75F WCI  24
STORM LAKE     MOCLDY    32  30  93 S13       29.75F WCI  22
$$

ABBREVIATIONS USED IN REMARKS
   TC - TEMPERATURE IN CELSIUS
  WCI - WIND CHILL INDEX
   HX - HEAT INDEX
  VSB - VISIBILITY





USA.gov is the U.S. government's official web portal to all federal, state and local government web resources and services.